User: anonymous   Login
Location: Unspecified
(0.0000°N, 0.0000°E)
Time: 04:30:03
(UTC+00:00)
Language:

STARLINK-11285 [DTC] - Orbit

View from above orbital plane
View from above orbital plane
View from above satellite
View from above satellite

Ground track
Ground track

The orbit is defined by the following mean orbital elements,

1 61578U          26145.58335647 +.00000000 +00000-0 -10607-2 0 00006
2 61578  53.1565 276.9919 0001166 101.8313 131.2203 15.69756985    01
Epoch (UTC): 25 May 2026 14:00:01
Eccentricity: 0.0001166
inclination: 53.1565°
perigee height: 359 km
apogee height: 360 km
right ascension of ascending node: 276.9919°
argument of perigee: 101.8313°
revolutions per day: 15.69756985
mean anomaly at epoch: 131.2203°

The dashed part of the orbit path shows where the satellite is in the earth's shadow,  

DLR